Weather History for KLNS - March, 2014

Change the Weather History Date:

Wednesday, March 12, 2014

  Actual Average Record
Temperature  
Mean Temperature 44 °F -  
Max Temperature 60 °F 51 °F 83 °F (1990)
Min Temperature 25 °F 29 °F 13 °F (1984)
Degree Days  
Heating Degree Days 22    
Moisture  
Dew Point 37 °F    
Average Humidity 79    
Maximum Humidity 97    
Minimum Humidity 58    
Precipitation  
Precipitation 0.29 in - - ()
Sea Level Pressure  
Sea Level Pressure 29.27 in    
Wind  
Wind Speed 9 mph (NNE)    
Max Wind Speed 31 mph    
Max Gust Speed 46 mph    
Visibility 6 miles    
Events Rain    
Averages and records for this station are not official NWS values.
T = Trace of Precipitation, MM = Missing Value Source: NWS Daily Summary

Daily Weather History Graph

Daily Weather History Graph

Search for Another Location

Airport or City:

Trip Planner

Search our weather history database for the weather conditions in past years. The results will help you decide how hot, cold, wet, or windy it might be!

Date:

Astronomy

Mar. 12, 2014 Rise Set
Actual Time 7:21 AM EDT 7:08 PM EDT
Civil Twilight 6:54 AM EDT 7:35 PM EDT
Nautical Twilight 6:23 AM EDT 8:07 PM EDT
Astronomical Twilight 5:51 AM EDT 8:39 PM EDT
Moon 3:37 PM EDT (3/12) 4:52 AM EDT (3/12)
Length of Visible Light 12h 41m
Length of Day
11h 47m
Waxing Gibbous, 85% of the Moon is Illuminated
Mar 12
Waxing Gibbous
Mar 16
Full
Mar 23
Last Quarter
Mar 30
New
Apr 7
First Quarter

Hourly Weather History & Observations

Time (EDT) Temp. Windchill Dew Point Humidity Pressure Visibility Wind Dir Wind Speed Gust Speed Precip Events Conditions
12:53 AM 45.0 °F 41.8 °F 37.0 °F 74% 29.65 in 6.0 mi East 5.8 mph - N/A   Haze
1:53 AM 43.0 °F 40.3 °F 36.0 °F 76% 29.62 in 7.0 mi East 4.6 mph - N/A   Clear
2:53 AM 41.0 °F 39.0 °F 35.1 °F 79% 29.60 in 8.0 mi NNE 3.5 mph - N/A   Clear
3:53 AM 42.1 °F 40.2 °F 35.1 °F 76% 29.55 in 7.0 mi ESE 3.5 mph - N/A   Clear
4:53 AM 39.0 °F 34.8 °F 34.0 °F 82% 29.54 in 7.0 mi East 5.8 mph - N/A   Clear
5:53 AM 39.0 °F 35.7 °F 35.1 °F 86% 29.52 in 6.0 mi ESE 4.6 mph - N/A   Clear
6:53 AM 37.9 °F 33.5 °F 34.0 °F 86% 29.49 in 6.0 mi East 5.8 mph - N/A   Clear
7:53 AM 39.0 °F 34.8 °F 35.1 °F 86% 29.47 in 5.0 mi SE 5.8 mph - N/A   Partly Cloudy
8:53 AM 42.1 °F 40.2 °F 36.0 °F 79% 29.43 in 5.0 mi East 3.5 mph - N/A   Haze
9:53 AM 44.1 °F 42.5 °F 37.0 °F 76% 29.40 in 5.0 mi East 3.5 mph - N/A   Haze
10:53 AM 48.0 °F - 37.9 °F 68% 29.34 in 8.0 mi ESE 5.8 mph - N/A   Mostly Cloudy
11:53 AM 51.1 °F - 39.9 °F 66% 29.27 in 9.0 mi Variable 5.8 mph - N/A   Overcast
12:53 PM 52.0 °F - 39.9 °F 63% 29.22 in 9.0 mi East 6.9 mph - N/A   Overcast
1:53 PM 50.0 °F - 44.1 °F 80% 29.18 in 6.0 mi NNE 6.9 mph - 0.01 in Rain Light Rain
2:53 PM 51.1 °F - 46.0 °F 83% 29.13 in 5.0 mi NE 3.5 mph - 0.02 in Rain Light Rain
3:53 PM 51.1 °F - 46.9 °F 86% 29.08 in 4.0 mi ENE 3.5 mph - 0.01 in Rain Light Rain
4:53 PM 60.1 °F - 50.0 °F 69% 29.01 in 10.0 mi South 10.4 mph - 0.00 in   Partly Cloudy
5:35 PM 54.0 °F - 46.0 °F 75% 29.03 in 8.0 mi NNW 21.9 mph 39.1 mph N/A   Squalls
5:50 PM 50.0 °F - 44.6 °F 82% 29.06 in 5.0 mi NNW 13.8 mph - 0.02 in Rain Light Rain
5:53 PM 48.9 °F - 44.1 °F 83% 29.06 in 4.0 mi NNW 11.5 mph - 0.03 in Rain Heavy Rain
6:00 PM 48.9 °F - 45.0 °F 86% 29.05 in 2.0 mi North 9.2 mph - 0.06 in Rain Heavy Rain
6:50 PM 48.2 °F - 46.4 °F 93% 29.04 in 1.8 mi SE 6.9 mph - 0.19 in Rain Rain
6:53 PM 48.0 °F - 46.0 °F 93% 29.05 in 1.8 mi SE 6.9 mph - 0.20 in Rain Light Rain
7:09 PM 48.9 °F - 48.0 °F 97% 29.05 in 2.0 mi South 4.6 mph - 0.00 in   Overcast
7:30 PM 48.9 °F - 48.0 °F 97% 29.07 in 1.8 mi West 3.5 mph - 0.02 in Rain Light Rain
7:49 PM 48.2 °F - 46.4 °F 93% 29.08 in 3.0 mi West 11.5 mph 19.6 mph 0.02 in   Mostly Cloudy
7:53 PM 48.9 °F - 46.9 °F 93% 29.10 in 4.0 mi West 17.3 mph 25.3 mph 0.02 in   Mostly Cloudy
8:47 PM 41.0 °F 30.5 °F 35.6 °F 81% 29.19 in 8.0 mi NW 26.5 mph 41.4 mph 0.00 in Rain Light Rain
8:51 PM 39.2 °F 27.6 °F 33.8 °F 81% 29.20 in 6.0 mi NNW 28.8 mph 43.7 mph 0.00 in Rain Light Rain
8:53 PM 39.0 °F 27.8 °F 33.1 °F 79% 29.21 in 6.0 mi NNW 26.5 mph 43.7 mph 0.00 in Rain Light Rain
9:53 PM 30.9 °F 17.2 °F 23.0 °F 72% 29.32 in 10.0 mi NNW 25.3 mph 39.1 mph 0.00 in   Overcast
10:29 PM 28.9 °F 14.0 °F 19.0 °F 67% 29.37 in 10.0 mi NW 27.6 mph 41.4 mph N/A   Overcast
10:46 PM 28.0 °F 12.0 °F 17.1 °F 63% 29.38 in 10.0 mi NW 31.1 mph 43.7 mph N/A   Overcast
10:53 PM 27.0 °F 10.5 °F 15.1 °F 61% 29.40 in 10.0 mi NW 31.1 mph 46.0 mph N/A   Overcast
11:53 PM 25.0 °F 7.8 °F 12.0 °F 58% 29.43 in 10.0 mi NW 31.1 mph 40.3 mph N/A   Mostly Cloudy